Date,TemperatureHighF,TemperatureAvgF,TemperatureLowF,DewpointHighF,DewpointAvgF,DewpointLowF,HumidityHigh,HumidityAvg,HumidityLow,PressureMaxIn,PressureMinIn,WindSpeedMaxMPH,WindSpeedAvgMPH,GustSpeedMaxMPH,PrecipitationSumIn
2013-5-1,53.8,41.3,31.1,26.0,17.6,12.2,63,41,20,30.38,29.96,14,4,20,0.00
2013-5-2,57.4,43.3,26.6,27.9,19.1,13.3,74,41,21,30.48,30.26,11,2,16,0.00
2013-5-3,59.4,43.5,26.1,28.4,20.1,10.2,81,44,19,30.26,30.02,13,4,17,0.00
2013-5-4,60.4,44.9,28.9,32.7,23.0,17.6,83,46,20,30.11,30.03,12,3,20,0.00
2013-5-5,62.1,47.5,31.8,34.1,28.6,20.8,82,52,23,30.08,29.91,8,2,11,0.00
2013-5-6,72.5,58.8,42.4,40.1,32.5,24.3,75,42,18,29.95,29.80,7,1,9,0.00
2013-5-7,78.3,61.8,42.8,44.9,39.7,33.3,80,48,24,29.82,29.66,14,2,17,0.00
2013-5-8,79.3,62.7,43.7,47.1,40.9,33.1,86,50,20,29.92,29.73,12,3,17,0.00
2013-5-9,69.3,55.3,42.8,40.1,29.5,19.1,67,41,17,30.03,29.92,12,4,17,0.00
2013-5-10,79.3,58.0,38.3,41.4,31.0,23.5,77,39,20,30.05,29.80,18,4,30,0.00
2013-5-11,59.0,48.0,38.3,31.5,22.2,14.5,74,39,20,30.22,30.04,13,3,17,0.00
2013-5-12,42.3,36.8,34.2,24.4,20.6,15.6,66,52,41,30.07,30.03,4,1,5,0.00
2013-5-13,93.0,78.3,56.3,46.5,40.8,34.5,48,28,14,29.64,29.53,14,4,18,0.00
2013-5-14,82.6,72.4,58.5,54.0,40.2,24.5,52,34,12,29.71,29.35,17,6,24,0.00
2013-5-15,83.1,67.5,52.3,51.1,41.7,33.2,74,44,18,29.79,29.67,8,2,17,0.00
2013-5-16,67.5,61.5,54.7,56.1,46.3,35.3,78,58,33,29.71,29.63,16,4,24,0.00
2013-5-17,86.0,68.3,50.5,61.7,53.2,45.4,84,61,37,29.69,29.54,14,2,18,0.05
2013-5-18,86.4,69.6,55.4,62.7,58.8,52.5,98,72,40,29.67,29.51,17,2,26,0.83
2013-5-19,60.3,58.0,55.6,58.5,56.3,54.3,98,94,86,29.54,29.34,8,3,14,0.74
2013-5-20,58.5,54.6,50.4,57.8,53.1,49.3,99,95,83,29.44,29.33,12,4,23,0.19
2013-5-21,50.4,48.2,46.4,49.3,46.9,45.1,99,95,89,29.73,29.43,12,4,25,0.09
2013-5-22,68.4,56.2,47.1,48.0,44.9,40.3,98,69,38,29.95,29.71,14,4,21,0.00
2013-5-23,73.6,59.7,43.9,50.6,44.2,36.8,96,61,28,30.05,29.95,12,4,17,0.00
2013-5-24,70.3,59.8,52.3,55.5,47.6,37.4,80,64,53,29.97,29.75,17,6,24,0.00
2013-5-25,81.9,66.3,50.5,60.2,55.2,47.7,92,70,46,29.85,29.72,17,5,27,0.00
2013-5-26,78.4,64.3,54.0,61.4,56.5,52.3,97,78,49,29.91,29.59,24,6,37,0.78
2013-5-27,72.9,60.5,54.7,59.8,55.8,53.3,97,86,58,29.77,29.48,11,4,16,0.69
2013-5-28,80.4,66.9,55.6,57.1,54.6,49.6,95,68,36,29.54,29.47,11,2,16,0.00
2013-5-29,77.5,66.6,59.9,61.6,56.9,53.0,94,72,45,29.54,29.32,13,4,18,0.00
2013-5-30,76.5,67.0,60.6,62.6,60.1,56.4,98,80,53,29.33,29.13,12,3,19,0.39
2013-5-31,72.9,61.8,52.9,59.2,55.2,50.0,92,80,54,29.56,29.13,12,3,21,0.00